St. Petersburg, FL

10:13 AM EDT on April 29, 2017 (GMT -0400)
Whitted

Weather History for KSPG - December, 2012

Change the Weather History Date:

Wednesday, December 12, 2012

  Actual Average Record
Temperature  
Mean Temperature 75 °F -  
Max Temperature 82 °F 73 °F 84 °F (1948)
Min Temperature 68 °F 57 °F 30 °F (1957)
Cooling Degree Days 10    
Growing Degree Days 25 (Base 50)    
Moisture  
Dew Point 70 °F    
Average Humidity 89    
Maximum Humidity 100    
Minimum Humidity 67    
Precipitation  
Precipitation 0.13 in - - ()
Sea Level Pressure  
Sea Level Pressure 30.02 in    
Wind  
Wind Speed 4 mph (SW)    
Max Wind Speed 12 mph    
Max Gust Speed -    
Visibility 8 miles    
Events Rain    
Averages and records for this station are not official NWS values.
T = Trace of Precipitation, MM = Missing Value Source: NWS Daily Summary

Daily Weather History Graph

Daily Weather History Graph

Search for Another Location

Airport or City:

Trip Planner

Search our weather history database for the weather conditions in past years. The results will help you decide how hot, cold, wet, or windy it might be!

Date:

Astronomy

Dec. 12, 2012 Rise Set
Actual Time 7:12 AM EST 5:36 PM EST
Civil Twilight 6:46 AM EST 6:02 PM EST
Nautical Twilight 6:17 AM EST 6:31 PM EST
Astronomical Twilight 5:48 AM EST 7:00 PM EST
Moon 6:17 AM EST (12/12) 5:11 PM EST (12/12)
Length of Visible Light 11h 15m
Length of Day
10h 24m
Waning Crescent, 1% of the Moon is Illuminated
Dec 12
Waning Crescent
Dec 13
New
Dec 20
First Quarter
Dec 28
Full
Jan 4
Last Quarter

Hourly Weather History & Observations

Time (EST) Temp. Heat Index Dew Point Humidity Pressure Visibility Wind Dir Wind Speed Gust Speed Precip Events Conditions
12:01 AM 71.1 °F - 71.1 °F 100% 30.01 in 10.0 mi SSE 5.8 mph - N/A   Mostly Cloudy
12:20 AM 71.1 °F - 71.1 °F 100% 30.02 in 10.0 mi Calm Calm - N/A   Overcast
12:53 AM 71.1 °F - 71.1 °F 100% 30.02 in 10.0 mi Calm Calm - N/A   Overcast
1:02 AM 71.1 °F - 71.1 °F 100% 30.02 in 1.8 mi West 4.6 mph - 0.08 in Rain Rain
1:09 AM 72.0 °F - 71.1 °F 97% 30.02 in 1.2 mi Calm Calm - 0.13 in Rain Heavy Rain
1:13 AM 72.0 °F - 71.1 °F 97% 30.02 in 3.0 mi SSW 3.5 mph - 0.13 in Rain Light Rain
1:20 AM 71.1 °F - 71.1 °F 100% 30.01 in 8.0 mi South 3.5 mph - 0.13 in   Overcast
1:50 AM 71.6 °F - 71.6 °F 100% 30.01 in 10.0 mi Calm Calm - 0.13 in   Mostly Cloudy
1:53 AM 71.1 °F - 71.1 °F 100% 30.01 in 10.0 mi Calm Calm - 0.13 in   Mostly Cloudy
2:49 AM 69.8 °F - 69.8 °F 100% 29.98 in 5.0 mi Calm Calm - N/A   Mostly Cloudy
2:53 AM 70.0 °F - 70.0 °F 100% 29.98 in 5.0 mi Calm Calm - N/A   Mostly Cloudy
3:28 AM 70.0 °F - 70.0 °F 100% 29.98 in 5.0 mi Calm Calm - N/A   Scattered Clouds
3:39 AM 70.0 °F - 69.1 °F 97% 29.98 in 2.5 mi Calm Calm - N/A   Clear
3:46 AM 70.0 °F - 70.0 °F 100% 29.98 in 4.0 mi Calm Calm - N/A   Clear
3:53 AM 69.1 °F - 69.1 °F 100% 29.98 in 3.0 mi East 4.6 mph - N/A   Partly Cloudy
4:03 AM 70.0 °F - 70.0 °F 100% 29.98 in 1.5 mi Calm Calm - N/A   Mostly Cloudy
4:14 AM 70.0 °F - 70.0 °F 100% 29.99 in 0.8 mi Calm Calm - N/A   Overcast
4:27 AM 70.0 °F - 70.0 °F 100% 29.99 in 1.5 mi SE 4.6 mph - N/A   Overcast
4:33 AM 70.0 °F - 70.0 °F 100% 29.99 in 3.0 mi SE 5.8 mph - N/A   Mostly Cloudy
4:48 AM 69.8 °F - 69.8 °F 100% 29.99 in 5.0 mi SSE 4.6 mph - N/A   Scattered Clouds
4:53 AM 70.0 °F - 70.0 °F 100% 29.99 in 5.0 mi SE 5.8 mph - N/A   Scattered Clouds
5:53 AM 68.0 °F - 68.0 °F 100% 30.00 in 10.0 mi South 9.2 mph - N/A   Clear
6:53 AM 70.0 °F - 68.0 °F 93% 30.02 in 10.0 mi South 9.2 mph - N/A   Partly Cloudy
7:53 AM 70.0 °F - 68.0 °F 93% 30.04 in 10.0 mi South 11.5 mph - N/A   Scattered Clouds
8:53 AM 71.1 °F - 69.1 °F 93% 30.06 in 10.0 mi South 9.2 mph - N/A   Scattered Clouds
9:53 AM 72.0 °F - 70.0 °F 93% 30.06 in 10.0 mi SSW 8.1 mph - N/A   Clear
10:53 AM 75.0 °F - 70.0 °F 84% 30.06 in 10.0 mi South 6.9 mph - N/A   Scattered Clouds
11:02 AM 75.0 °F - 70.0 °F 84% 30.06 in 10.0 mi South 8.1 mph - N/A   Mostly Cloudy
11:32 AM 78.1 °F - 71.1 °F 79% 30.05 in 10.0 mi South 8.1 mph - N/A   Mostly Cloudy
11:53 AM 75.9 °F - 70.0 °F 82% 30.04 in 10.0 mi South 9.2 mph - N/A   Partly Cloudy
12:53 PM 78.1 °F - 71.1 °F 79% 30.01 in 10.0 mi South 9.2 mph - N/A   Partly Cloudy
1:53 PM 79.0 °F - 70.0 °F 74% 30.01 in 10.0 mi SW 10.4 mph - N/A   Mostly Cloudy
2:53 PM 82.0 °F 85.9 °F 70.0 °F 67% 30.01 in 10.0 mi SW 8.1 mph - N/A   Mostly Cloudy
3:53 PM 82.0 °F 85.9 °F 70.0 °F 67% 30.02 in 10.0 mi SW 8.1 mph - N/A   Overcast
4:37 PM 80.1 °F 83.2 °F 70.0 °F 71% 30.02 in 10.0 mi WSW 8.1 mph - N/A   Overcast
4:53 PM 80.1 °F 83.6 °F 71.1 °F 74% 30.02 in 10.0 mi SSW 5.8 mph - N/A   Mostly Cloudy
5:53 PM 79.0 °F - 71.1 °F 77% 30.02 in 10.0 mi WNW 5.8 mph - N/A   Scattered Clouds
6:29 PM 78.1 °F - 70.0 °F 76% 30.02 in 10.0 mi WNW 4.6 mph - N/A   Mostly Cloudy
6:42 PM 77.0 °F - 69.1 °F 76% 30.01 in 10.0 mi North 5.8 mph - N/A   Mostly Cloudy
6:53 PM 75.9 °F - 69.1 °F 79% 30.02 in 10.0 mi North 8.1 mph - N/A   Mostly Cloudy
7:00 PM 75.0 °F - 69.1 °F 82% 30.03 in 10.0 mi NNW 5.8 mph - N/A   Mostly Cloudy
7:53 PM 75.0 °F - 69.1 °F 82% 30.04 in 10.0 mi North 4.6 mph - N/A   Scattered Clouds
8:53 PM 73.9 °F - 69.1 °F 85% 30.05 in 10.0 mi North 8.1 mph - N/A   Mostly Cloudy
9:14 PM 73.0 °F - 68.0 °F 84% 30.06 in 10.0 mi North 6.9 mph - N/A   Mostly Cloudy
9:46 PM 73.0 °F - 68.0 °F 84% 30.06 in 6.0 mi North 4.6 mph - N/A   Haze
9:53 PM 72.0 °F - 68.0 °F 87% 30.06 in 6.0 mi North 4.6 mph - N/A   Overcast
10:53 PM 72.0 °F - 68.0 °F 87% 30.08 in 5.0 mi NW 3.5 mph - N/A   Overcast
11:31 PM 73.0 °F - 66.9 °F 81% 30.08 in 8.0 mi North 4.6 mph - N/A   Mostly Cloudy
11:44 PM 72.0 °F - 66.9 °F 84% 30.08 in 9.0 mi NW 6.9 mph - N/A   Mostly Cloudy
11:53 PM 72.0 °F - 66.9 °F 84% 30.07 in 9.0 mi NNW 8.1 mph - N/A   Scattered Clouds